Weather observations for the past three days for
Jackson, Jackson Hole Airport
Imperial (Metric)
Date Time (mdt) Wind (mph) Vis. (mi.) Weather Sky Cond. Temperature (ºF) Relative Humidity Wind Chill (°F) Heat Index (°F) Pressure Precipitation (in)
Air Dwpt 6 hour altimeter (in) sea level (mb) 1 hr 3 hr 6 hr
Max. Min.
23 20:52 SW 9 10.00 Fair CLR 69.8 37.4 31% 30.08 0.0
23 19:51 SW 10 10.00 Fair CLR 78.8 35.6 21% 78 30.08 0.0
23 18:52 SW 13 G 24 10.00 Fair CLR 82.4 33.8 17% 80 30.09 0.0
23 17:56 SW 14 G 30 10.00 Fair CLR 82.4 32 16% 80 30.09 0.0
23 16:52 SW 17 G 29 10.00 Fair CLR 84.2 35.6 18% 81 30.1 0.0
23 15:56 SW 21 G 30 10.00 Fair and Breezy CLR 84.2 33.8 16% 81 30.1 0.0
23 14:56 SW 21 G 30 10.00 Fair and Breezy CLR 86 33.8 15% 83 30.11 0.0
23 13:56 SW 21 G 31 10.00 Fair and Breezy CLR 84.2 35.6 18% 81 30.12 0.0
23 12:56 SW 22 G 29 10.00 Fair and Breezy CLR 84.2 35.6 18% 81 30.13 0.0
23 11:58 S 16 10.00 Fair CLR 80.6 42.8 26% 79 30.14 0.0
23 10:58 S 5 10.00 Fair CLR 71.6 46.4 41% 30.15 0.0
23 09:59 Vrbl 3 10.00 Fair CLR 66.2 44.6 46% 30.16 0.0
23 08:56 Calm 10.00 Fair CLR 60.8 41 48% 30.17 0.0
23 07:56 Calm 10.00 Fair CLR 53.6 39.2 58% 30.18 0.0
23 06:59 Vrbl 3 10.00 Fair CLR 46.4 37.4 71% 30.18 0.0
22 19:56 W 6 10.00 Fair CLR 78.8 33.8 20% 78 30.14 0.0
22 18:56 SW 10 10.00 Fair CLR 80.6 33.8 18% 79 30.14 0.0
22 17:56 SW 12 G 18 10.00 Fair CLR 80.6 33.8 18% 79 30.15 0.0
22 15:56 S 9 10.00 Fair CLR 80.6 33.8 18% 79 30.17 0.0
22 13:59 W 12 G 23 10.00 Fair CLR 78.8 32 18% 78 30.19 0.0
22 12:59 SW 9 10.00 Fair CLR 78.8 32 18% 78 30.19 0.0
22 11:56 SW 9 10.00 Fair CLR 75.2 35.6 24% 76 30.2 0.0
22 10:55 SW 8 10.00 Fair CLR 69.8 44.6 40% 30.2 0.0
22 09:55 Calm 10.00 Fair CLR 64.4 44.6 49% 30.22 0.0
22 08:53 S 6 10.00 Fair CLR 60.8 44.6 55% 30.22 0.0
22 07:59 S 5 10.00 Fair CLR 57.2 44.6 63% 30.22 0.0
22 06:59 Calm 10.00 Fair CLR 51.8 42.8 72% 30.2 0.0
21 17:56 SW 9 G 22 10.00 Fair CLR 75.2 33.8 22% 76 30.05 0.0
21 16:56 W 9 G 22 10.00 Fair CLR 75.2 33.8 22% 76 30.06 0.0
21 15:56 W 9 10.00 Fair CLR 75.2 32 21% 76 30.06 0.0
21 14:56 W 9 10.00 Fair CLR 75.2 35.6 24% 76 30.07 0.0
21 13:59 S 9 10.00 Fair CLR 75.2 37.4 25% 77 30.08 0.0
21 12:53 S 12 G 16 10.00 Fair CLR 75.2 42.8 31% 77 30.1 0.0
21 11:59 SW 6 10.00 Fair CLR 69.8 44.6 40% 30.11 0.0
21 10:53 SW 3 10.00 Fair CLR 68 42.8 40% 30.13 0.0
21 09:52 Calm 10.00 Fair CLR 64.4 42.8 46% 30.15 0.0
21 08:59 Calm 10.00 Fair CLR 60.8 39.2 45% 30.15 0.0
21 07:53 Calm 10.00 Fair CLR 53.6 37.4 54% 30.15 0.0
21 06:52 Calm 10.00 Fair CLR 44.6 35.6 71% 30.15 0.0
Date Time (mdt) Wind (mph) Vis. (mi.) Weather Sky Cond. Air Dwpt Max. Min. Relative Humidity Wind Chill (°F) Heat Index (°F) altimeter (in) sea level (mb) 1 hr 3 hr 6 hr
6 hour
Temperature (ºF) Pressure Precipitation (in)